Time,TemperatureF,DewpointF,PressureIn,WindDirection,WindDirectionDegrees,WindSpeedMPH,WindSpeedGustMPH,Humidity,HourlyPrecipIn,Conditions,Clouds,dailyrainin,SolarRadiationWatts/m^2,SoftwareType,DateUTC
2013-08-23 00:02:00,71.0,60.0,-100.00,South,173,9.0,18.0,68,0.00,,,0.00,0.000000,,2013-08-23 06:02:00,
2013-08-23 00:12:00,71.0,60.0,-100.00,South,173,9.0,18.0,68,0.00,,,0.00,0.000000,,2013-08-23 06:12:00,
2013-08-23 00:22:00,71.0,60.0,-100.00,South,173,9.0,18.0,68,0.00,,,0.00,0.000000,,2013-08-23 06:22:00,
2013-08-23 00:52:00,70.0,61.0,-100.00,SSE,164,9.0,19.0,72,0.00,,,-99.99,0.000000,,2013-08-23 06:52:00,
2013-08-23 01:01:00,70.0,61.0,-100.00,SSE,164,9.0,19.0,72,0.00,,,-99.99,0.000000,,2013-08-23 07:01:00,
2013-08-23 01:12:00,70.0,61.0,-100.00,SSE,164,9.0,19.0,72,0.00,,,-99.99,0.000000,,2013-08-23 07:12:00,
2013-08-23 01:22:00,70.0,61.0,-100.00,SSE,164,9.0,19.0,72,0.00,,,-99.99,0.000000,,2013-08-23 07:22:00,
2013-08-23 01:52:00,69.0,61.0,-100.00,SSE,167,6.0,17.0,76,0.00,,,0.00,0.000000,,2013-08-23 07:52:00,
2013-08-23 02:02:00,69.0,61.0,-100.00,SSE,167,6.0,17.0,76,0.00,,,0.00,0.000000,,2013-08-23 08:02:00,
2013-08-23 02:13:00,69.0,61.0,-100.00,SSE,167,6.0,17.0,76,0.00,,,0.00,0.000000,,2013-08-23 08:13:00,
2013-08-23 02:22:00,69.0,61.0,-100.00,SSE,167,6.0,17.0,76,0.00,,,0.00,0.000000,,2013-08-23 08:22:00,
2013-08-23 02:52:00,69.0,62.0,-100.00,SSE,160,7.0,15.0,79,0.00,,,0.00,0.000000,,2013-08-23 08:52:00,
2013-08-23 03:01:00,69.0,62.0,-100.00,SSE,160,7.0,15.0,79,0.00,,,0.00,0.000000,,2013-08-23 09:01:00,
2013-08-23 03:12:00,69.0,62.0,-100.00,SSE,160,7.0,15.0,79,0.00,,,0.00,0.000000,,2013-08-23 09:12:00,
2013-08-23 03:21:00,69.0,62.0,-100.00,SSE,160,7.0,15.0,79,0.00,,,0.00,0.000000,,2013-08-23 09:21:00,
2013-08-23 03:53:00,71.0,65.0,-100.00,South,171,8.0,16.0,80,0.00,,,0.00,0.000000,,2013-08-23 09:53:00,
2013-08-23 04:03:00,71.0,65.0,-100.00,South,171,8.0,16.0,80,0.00,,,0.00,0.000000,,2013-08-23 10:03:00,
2013-08-23 04:13:00,71.0,65.0,-100.00,South,171,8.0,16.0,80,0.00,,,0.00,0.000000,,2013-08-23 10:13:00,
2013-08-23 04:23:00,71.0,65.0,-100.00,South,171,8.0,16.0,80,0.00,,,0.00,0.000000,,2013-08-23 10:23:00,
2013-08-23 04:53:00,70.0,64.0,-100.00,South,177,6.0,16.0,81,0.00,,,0.00,0.000000,,2013-08-23 10:53:00,
2013-08-23 05:02:00,70.0,64.0,-100.00,South,177,6.0,16.0,81,0.00,,,0.00,0.000000,,2013-08-23 11:02:00,
2013-08-23 05:11:00,70.0,64.0,-100.00,South,177,6.0,16.0,81,0.00,,,0.00,0.000000,,2013-08-23 11:11:00,
2013-08-23 05:22:00,70.0,64.0,-100.00,South,177,6.0,16.0,81,0.00,,,0.00,0.000000,,2013-08-23 11:22:00,
2013-08-23 05:53:00,68.0,63.0,-100.00,South,170,4.0,12.0,85,0.00,,,0.00,0.000000,,2013-08-23 11:53:00,
2013-08-23 06:01:00,68.0,63.0,-100.00,South,170,4.0,12.0,85,0.00,,,0.00,0.000000,,2013-08-23 12:01:00,
2013-08-23 06:11:00,68.0,63.0,-100.00,South,170,4.0,12.0,85,0.00,,,0.00,0.000000,,2013-08-23 12:11:00,
2013-08-23 06:22:00,68.0,63.0,-100.00,South,170,4.0,12.0,85,0.00,,,0.00,0.000000,,2013-08-23 12:22:00,
2013-08-23 06:52:00,66.0,61.0,-100.00,South,171,4.0,10.0,85,0.00,,,0.00,2.000000,,2013-08-23 12:52:00,
2013-08-23 07:02:00,66.0,61.0,-100.00,South,171,4.0,10.0,85,0.00,,,0.00,2.000000,,2013-08-23 13:02:00,
2013-08-23 07:12:00,66.0,61.0,-100.00,South,171,4.0,10.0,85,0.00,,,0.00,2.000000,,2013-08-23 13:12:00,
2013-08-23 07:22:00,66.0,61.0,-100.00,South,171,4.0,10.0,85,0.00,,,0.00,2.000000,,2013-08-23 13:22:00,
2013-08-23 07:53:00,68.0,62.0,-100.00,South,170,5.0,11.0,81,0.00,,,0.00,63.000000,,2013-08-23 13:53:00,
2013-08-23 08:02:00,68.0,62.0,-100.00,South,170,5.0,11.0,81,0.00,,,0.00,63.000000,,2013-08-23 14:02:00,
2013-08-23 08:12:00,68.0,62.0,-100.00,South,170,5.0,11.0,81,0.00,,,0.00,63.000000,,2013-08-23 14:12:00,
2013-08-23 08:21:00,68.0,62.0,-100.00,South,170,5.0,11.0,81,0.00,,,0.00,63.000000,,2013-08-23 14:21:00,
2013-08-23 08:52:00,76.0,64.0,-100.00,South,172,7.0,13.0,66,0.00,,,0.00,274.000000,,2013-08-23 14:52:00,
2013-08-23 09:01:00,76.0,64.0,-100.00,South,172,7.0,13.0,66,0.00,,,0.00,274.000000,,2013-08-23 15:01:00,
2013-08-23 09:11:00,76.0,64.0,-100.00,South,172,7.0,13.0,66,0.00,,,0.00,274.000000,,2013-08-23 15:11:00,
2013-08-23 09:22:00,76.0,64.0,-100.00,South,172,7.0,13.0,66,0.00,,,0.00,274.000000,,2013-08-23 15:22:00,
2013-08-23 09:24:00,81.0,63.0,-100.00,South,176,8.0,14.0,55,0.00,,,0.00,469.000000,,2013-08-23 15:24:00,
2013-08-23 10:13:00,81.0,63.0,-100.00,South,176,8.0,14.0,55,0.00,,,0.00,469.000000,,2013-08-23 16:13:00,
2013-08-23 10:53:00,83.0,62.0,-100.00,SSW,194,7.0,14.0,49,0.00,,,0.00,646.000000,,2013-08-23 16:53:00,
2013-08-23 11:04:00,83.0,62.0,-100.00,SSW,194,7.0,14.0,49,0.00,,,0.00,646.000000,,2013-08-23 17:04:00,
2013-08-23 11:13:00,83.0,62.0,-100.00,SSW,194,7.0,14.0,49,0.00,,,0.00,646.000000,,2013-08-23 17:13:00,
2013-08-23 11:23:00,83.0,62.0,-100.00,SSW,194,7.0,14.0,49,0.00,,,0.00,646.000000,,2013-08-23 17:23:00,
2013-08-23 11:54:00,88.0,63.0,-100.00,South,190,7.0,13.0,43,0.00,,,0.00,781.000000,,2013-08-23 17:54:00,
2013-08-23 12:02:00,88.0,63.0,-100.00,South,190,7.0,13.0,43,0.00,,,0.00,781.000000,,2013-08-23 18:02:00,
2013-08-23 12:12:00,88.0,63.0,-100.00,South,190,7.0,13.0,43,0.00,,,0.00,781.000000,,2013-08-23 18:12:00,
2013-08-23 12:22:00,88.0,63.0,-100.00,South,190,7.0,13.0,43,0.00,,,0.00,781.000000,,2013-08-23 18:22:00,
2013-08-23 12:52:00,91.0,62.0,-100.00,South,172,7.0,17.0,38,0.00,,,0.00,856.000000,,2013-08-23 18:52:00,
2013-08-23 13:02:00,91.0,62.0,-100.00,South,172,7.0,17.0,38,0.00,,,0.00,856.000000,,2013-08-23 19:02:00,
2013-08-23 13:12:00,91.0,62.0,-100.00,South,172,7.0,17.0,38,0.00,,,0.00,856.000000,,2013-08-23 19:12:00,
2013-08-23 13:22:00,91.0,62.0,-100.00,South,172,7.0,17.0,38,0.00,,,0.00,856.000000,,2013-08-23 19:22:00,
2013-08-23 13:52:00,94.0,60.0,-100.00,South,172,7.0,18.0,33,0.00,,,0.00,943.000000,,2013-08-23 19:52:00,
2013-08-23 14:02:00,94.0,60.0,-100.00,South,172,7.0,18.0,33,0.00,,,0.00,943.000000,,2013-08-23 20:02:00,
2013-08-23 14:12:00,94.0,60.0,-100.00,South,172,7.0,18.0,33,0.00,,,0.00,943.000000,,2013-08-23 20:12:00,
2013-08-23 14:22:00,94.0,60.0,-100.00,South,172,7.0,18.0,33,0.00,,,0.00,943.000000,,2013-08-23 20:22:00,
2013-08-23 14:52:00,94.0,58.0,-100.00,SSW,200,8.0,18.0,30,0.00,,,0.00,911.000000,,2013-08-23 20:52:00,
2013-08-23 15:02:00,94.0,58.0,-100.00,SSW,200,8.0,18.0,30,0.00,,,0.00,911.000000,,2013-08-23 21:02:00,
2013-08-23 15:11:00,94.0,58.0,-100.00,SSW,200,8.0,18.0,30,0.00,,,0.00,911.000000,,2013-08-23 21:11:00,
2013-08-23 15:22:00,94.0,58.0,-100.00,SSW,200,8.0,18.0,30,0.00,,,0.00,911.000000,,2013-08-23 21:22:00,
2013-08-23 15:24:00,97.0,57.0,-100.00,SSW,212,6.0,15.0,27,0.00,,,0.00,806.000000,,2013-08-23 21:24:00,
2013-08-23 15:54:00,97.0,57.0,-100.00,SSW,212,6.0,15.0,27,0.00,,,0.00,806.000000,,2013-08-23 21:54:00,
2013-08-23 16:04:00,97.0,57.0,-100.00,SSW,212,6.0,15.0,27,0.00,,,0.00,806.000000,,2013-08-23 22:04:00,
2013-08-23 16:13:00,97.0,57.0,-100.00,SSW,212,6.0,15.0,27,0.00,,,0.00,806.000000,,2013-08-23 22:13:00,
2013-08-23 16:53:00,100.0,54.0,-100.00,West,270,4.0,13.0,22,0.00,,,0.00,716.000000,,2013-08-23 22:53:00,
2013-08-23 17:03:00,100.0,54.0,-100.00,West,270,4.0,13.0,22,0.00,,,0.00,716.000000,,2013-08-23 23:03:00,
2013-08-23 17:12:00,100.0,54.0,-100.00,West,270,4.0,13.0,22,0.00,,,0.00,716.000000,,2013-08-23 23:12:00,
2013-08-23 17:22:00,100.0,54.0,-100.00,West,270,4.0,13.0,22,0.00,,,0.00,716.000000,,2013-08-23 23:22:00,
2013-08-23 17:54:00,98.0,54.0,-100.00,WSW,249,4.0,9.0,23,0.00,,,0.00,522.000000,,2013-08-23 23:54:00,
2013-08-23 18:02:00,98.0,54.0,-100.00,WSW,249,4.0,9.0,23,0.00,,,0.00,522.000000,,2013-08-24 00:02:00,
2013-08-23 18:11:00,98.0,54.0,-100.00,WSW,249,4.0,9.0,23,0.00,,,0.00,522.000000,,2013-08-24 00:11:00,
2013-08-23 18:21:00,98.0,54.0,-100.00,WSW,249,4.0,9.0,23,0.00,,,0.00,522.000000,,2013-08-24 00:21:00,
2013-08-23 18:53:00,97.0,55.0,-100.00,WSW,251,1.0,8.0,25,0.00,,,0.00,295.000000,,2013-08-24 00:53:00,
2013-08-23 19:02:00,97.0,55.0,-100.00,WSW,251,1.0,8.0,25,0.00,,,0.00,295.000000,,2013-08-24 01:02:00,
2013-08-23 19:11:00,97.0,55.0,-100.00,WSW,251,1.0,8.0,25,0.00,,,0.00,295.000000,,2013-08-24 01:11:00,
2013-08-23 19:22:00,97.0,55.0,-100.00,WSW,251,1.0,8.0,25,0.00,,,0.00,295.000000,,2013-08-24 01:22:00,
2013-08-23 19:53:00,90.0,56.0,-100.00,WNW,291,0.0,3.0,32,0.00,,,0.00,89.000000,,2013-08-24 01:53:00,
2013-08-23 20:03:00,90.0,56.0,-100.00,WNW,291,0.0,3.0,32,0.00,,,0.00,89.000000,,2013-08-24 02:03:00,
2013-08-23 20:12:00,90.0,56.0,-100.00,WNW,291,0.0,3.0,32,0.00,,,0.00,89.000000,,2013-08-24 02:12:00,
2013-08-23 20:22:00,90.0,56.0,-100.00,WNW,291,0.0,3.0,32,0.00,,,0.00,89.000000,,2013-08-24 02:22:00,
2013-08-23 20:52:00,83.0,59.0,-100.00,WSW,239,1.0,5.0,45,0.00,,,0.00,12.000000,,2013-08-24 02:52:00,
2013-08-23 21:02:00,83.0,59.0,-100.00,WSW,239,1.0,5.0,45,0.00,,,0.00,12.000000,,2013-08-24 03:02:00,
2013-08-23 21:12:00,83.0,59.0,-100.00,WSW,239,1.0,5.0,45,0.00,,,0.00,12.000000,,2013-08-24 03:12:00,
2013-08-23 21:22:00,83.0,59.0,-100.00,WSW,239,1.0,5.0,45,0.00,,,0.00,12.000000,,2013-08-24 03:22:00,
2013-08-23 21:24:00,80.0,63.0,-100.00,SSE,152,0.0,5.0,56,0.00,,,0.00,0.000000,,2013-08-24 03:24:00,
2013-08-23 21:55:00,80.0,63.0,-100.00,SSE,152,0.0,5.0,56,0.00,,,0.00,0.000000,,2013-08-24 03:55:00,
2013-08-23 22:04:00,80.0,63.0,-100.00,SSE,152,0.0,5.0,56,0.00,,,0.00,0.000000,,2013-08-24 04:04:00,
2013-08-23 22:14:00,80.0,63.0,-100.00,SSE,152,0.0,5.0,56,0.00,,,0.00,0.000000,,2013-08-24 04:14:00,
2013-08-23 22:54:00,77.0,62.0,-100.00,South,184,1.0,5.0,59,0.00,,,0.00,0.000000,,2013-08-24 04:54:00,
2013-08-23 23:03:00,77.0,62.0,-100.00,South,184,1.0,5.0,59,0.00,,,0.00,0.000000,,2013-08-24 05:03:00,
2013-08-23 23:13:00,77.0,62.0,-100.00,South,184,1.0,5.0,59,0.00,,,0.00,0.000000,,2013-08-24 05:13:00,
2013-08-23 23:23:00,77.0,62.0,-100.00,South,184,1.0,5.0,59,0.00,,,0.00,0.000000,,2013-08-24 05:23:00,
2013-08-23 23:53:00,77.0,63.0,-100.00,South,180,2.0,7.0,61,0.00,,,0.00,0.000000,,2013-08-24 05:53:00,